| time (UTC) | temp F | wind direction | speed knots | gust knots | rain 1hr in | rain 24hr in | rain mn in | humidity % | barometer mb |
| 20260507051716 | 56 | 155 | 6.1 | 8.7 | 0.00 | 0.00 | 0.00 | 84 | 1020.5 |
| 20260507050246 | 56 | 132 | 4.3 | 7.0 | 0.00 | 0.00 | 0.00 | 83 | 1020.7 |
| 20260507044801 | 56 | 151 | 4.3 | 7.8 | 0.00 | 0.00 | 0.00 | 83 | 1020.6 |
| 20260507044707 | 56 | 151 | 4.3 | 7.8 | 0.00 | 0.00 | 0.00 | 83 | 1020.6 |
| 20260507043334 | 56 | 151 | 4.3 | 7.8 | 0.00 | 0.00 | 0.00 | 83 | 1020.6 |
| 20260507042202 | 57 | 148 | 5.2 | 7.8 | 0.00 | 0.00 | 0.00 | 83 | 1020.5 |
| 20260507042021 | 57 | 148 | 5.2 | 7.8 | 0.00 | 0.00 | 0.00 | 83 | 1020.5 |
| 20260507040922 | 57 | 153 | 4.3 | 7.8 | 0.00 | 0.00 | 0.00 | 82 | 1020.4 |
| 20260507040510 | 57 | 159 | 4.3 | 7.8 | 0.00 | 0.00 | 0.00 | 82 | 1020.4 |
| 20260507035717 | 57 | 161 | 5.2 | 7.8 | 0.00 | 0.00 | 0.00 | 81 | 1020.4 |
| 20260507035006 | 57 | 163 | 4.3 | 7.8 | 0.00 | 0.00 | 0.00 | 81 | 1020.3 |
| 20260507034402 | 57 | 152 | 5.2 | 7.8 | 0.00 | 0.00 | 0.00 | 80 | 1020.2 |
| 20260507033610 | 58 | 155 | 5.2 | 7.0 | 0.00 | 0.00 | 0.00 | 80 | 1020.2 |
| 20260507032939 | 58 | 161 | 3.5 | 6.1 | 0.00 | 0.00 | 0.00 | 78 | 1020.2 |
| 20260507032316 | 58 | 157 | 4.3 | 6.1 | 0.00 | 0.00 | 0.00 | 78 | 1020.1 |
| 20260507031522 | 59 | 150 | 3.5 | 5.2 | 0.00 | 0.00 | 0.00 | 78 | 1020.2 |
| 20260507030810 | 59 | 151 | 2.6 | 5.2 | 0.00 | 0.00 | 0.00 | 77 | 1020.1 |
| 20260507030107 | 59 | 171 | 2.6 | 5.2 | 0.00 | 0.00 | 0.00 | 77 | 1020.0 |
| 20260507025510 | 59 | 156 | 2.6 | 5.2 | 0.00 | 0.00 | 0.00 | 78 | 1020.0 |
| 20260507024611 | 59 | 156 | 3.5 | 5.2 | 0.00 | 0.00 | 0.00 | 78 | 1020.0 |
| 20260507024156 | 59 | 150 | 3.5 | 5.2 | 0.00 | 0.00 | 0.00 | 78 | 1020.0 |
| 20260507022830 | 59 | 158 | 3.5 | 7.0 | 0.00 | 0.00 | 0.00 | 78 | 1019.8 |
| 20260507021702 | 59 | 139 | 4.3 | 8.7 | 0.00 | 0.00 | 0.00 | 78 | 1019.9 |
| 20260507021350 | 59 | 144 | 3.5 | 8.7 | 0.00 | 0.00 | 0.00 | 78 | 1019.8 |
| 20260507015930 | 59 | 151 | 4.3 | 7.0 | 0.00 | 0.00 | 0.00 | 78 | 1019.8 |
| 20260507015122 | 59 | 145 | 4.3 | 7.0 | 0.00 | 0.00 | 0.00 | 78 | 1019.8 |
| 20260507014641 | 59 | 153 | 4.3 | 7.0 | 0.00 | 0.00 | 0.00 | 78 | 1019.8 |
| 20260507013301 | 59 | 146 | 4.3 | 7.8 | 0.00 | 0.00 | 0.00 | 79 | 1019.8 |
| 20260507011930 | 58 | 149 | 5.2 | 7.8 | 0.00 | 0.00 | 0.00 | 79 | 1019.8 |
| 20260507010641 | 59 | 147 | 4.3 | 8.7 | 0.00 | 0.00 | 0.00 | 79 | 1019.8 |
| 20260507005101 | 58 | 142 | 5.2 | 8.7 | 0.00 | 0.00 | 0.00 | 79 | 1020.0 |
| 20260507004537 | 58 | 144 | 6.1 | 8.7 | 0.00 | 0.00 | 0.00 | 79 | 1020.0 |
| 20260507003546 | 58 | 147 | 5.2 | 9.6 | 0.00 | 0.00 | 0.00 | 79 | 1019.9 |
| 20260507002027 | 58 | 142 | 5.2 | 9.6 | 0.00 | 0.00 | 0.00 | 79 | 1020.0 |
| 20260507000626 | 59 | 153 | 3.5 | 8.7 | 0.00 | 0.00 | 0.00 | 78 | 1020.0 |
| 20260506235143 | 58 | 156 | 5.2 | 7.0 | 0.00 | 0.00 | 0.00 | 78 | 1020.0 |
| 20260506233942 | 58 | 154 | 4.3 | 7.8 | 0.00 | 0.00 | 0.00 | 78 | 1020.1 |
| 20260506233826 | 58 | 154 | 4.3 | 7.8 | 0.00 | 0.00 | 0.00 | 78 | 1020.1 |
| 20260506232627 | 59 | 164 | 3.5 | 7.8 | 0.00 | 0.00 | 0.00 | 77 | 1020.1 |
| 20260506232256 | 58 | 171 | 5.2 | 8.7 | 0.00 | 0.00 | 0.00 | 77 | 1020.1 |
| 20260506231006 | 58 | 158 | 4.3 | 7.8 | 0.00 | 0.00 | 0.00 | 78 | 1020.2 |
| 20260506225626 | 58 | 160 | 5.2 | 8.7 | 0.00 | 0.00 | 0.00 | 78 | 1020.2 |
| 20260506224206 | 58 | 149 | 5.2 | 7.0 | 0.00 | 0.00 | 0.00 | 78 | 1020.1 |
| 20260506223322 | 58 | 158 | 4.3 | 8.7 | 0.00 | 0.00 | 0.00 | 77 | 1020.1 |
| 20260506222736 | 58 | 157 | 5.2 | 8.7 | 0.00 | 0.00 | 0.00 | 77 | 1020.2 |
| 20260506222002 | 59 | 179 | 4.3 | 8.7 | 0.00 | 0.00 | 0.00 | 77 | 1020.3 |
| 20260506221250 | 58 | 149 | 5.2 | 8.7 | 0.00 | 0.00 | 0.00 | 77 | 1020.3 |
| 20260506220602 | 58 | 152 | 5.2 | 9.6 | 0.00 | 0.00 | 0.00 | 77 | 1020.3 |
| 20260506215650 | 58 | 161 | 7.0 | 9.6 | 0.00 | 0.00 | 0.00 | 76 | 1020.4 |
| 20260506215307 | 58 | 168 | 6.1 | 9.6 | 0.00 | 0.00 | 0.00 | 76 | 1020.3 |
| 20260506214101 | 58 | 147 | 7.8 | 12.2 | 0.00 | 0.00 | 0.00 | 77 | 1020.2 |
| 20260506212626 | 58 | 147 | 7.0 | 11.3 | 0.00 | 0.00 | 0.00 | 76 | 1020.4 |
| 20260506212357 | 58 | 159 | 5.2 | 8.7 | 0.00 | 0.00 | 0.00 | 76 | 1020.4 |
| 20260506211147 | 59 | 157 | 4.3 | 9.6 | 0.00 | 0.00 | 0.00 | 75 | 1020.5 |
| 20260506211056 | 59 | 157 | 4.3 | 9.6 | 0.00 | 0.00 | 0.00 | 75 | 1020.5 |
| 20260506205520 | 59 | 151 | 5.2 | 9.6 | 0.00 | 0.00 | 0.00 | 76 | 1020.3 |
| 20260506204607 | 59 | 166 | 5.2 | 9.6 | 0.00 | 0.00 | 0.00 | 75 | 1020.2 |
| 20260506204216 | 59 | 150 | 5.2 | 9.6 | 0.00 | 0.00 | 0.00 | 76 | 1020.1 |
| 20260506202656 | 58 | 143 | 5.2 | 11.3 | 0.00 | 0.00 | 0.00 | 76 | 1020.2 |
| 20260506201942 | 58 | 166 | 5.2 | 8.7 | 0.00 | 0.00 | 0.00 | 76 | 1020.1 |
| 20260506201341 | 58 | 155 | 5.2 | 12.2 | 0.00 | 0.00 | 0.00 | 76 | 1020.2 |
| 20260506200637 | 58 | 150 | 5.2 | 12.2 | 0.00 | 0.00 | 0.00 | 78 | 1020.3 |
| 20260506195906 | 59 | 156 | 4.3 | 7.8 | 0.00 | 0.00 | 0.00 | 77 | 1020.1 |
| 20260506195402 | 58 | 162 | 5.2 | 7.8 | 0.00 | 0.00 | 0.00 | 78 | 1020.2 |
| 20260506194426 | 57 | 141 | 5.2 | 10.4 | 0.00 | 0.00 | 0.00 | 79 | 1020.1 |
| 20260506194131 | 57 | 141 | 5.2 | 10.4 | 0.00 | 0.00 | 0.00 | 79 | 1020.1 |
| 20260506193021 | 56 | 138 | 7.0 | 10.4 | 0.00 | 0.00 | 0.00 | 80 | 1020.1 |
| 20260506192717 | 58 | 136 | 5.2 | 10.4 | 0.00 | 0.00 | 0.00 | 79 | 1020.1 |
| 20260506191546 | 56 | 135 | 5.2 | 8.7 | 0.00 | 0.00 | 0.00 | 81 | 1020.1 |
| 20260506191317 | 56 | 146 | 5.2 | 8.7 | 0.00 | 0.00 | 0.00 | 81 | 1020.0 |
| 20260506190136 | 56 | 141 | 6.1 | 9.6 | 0.00 | 0.00 | 0.00 | 82 | 1020.0 |
| 20260506190021 | 56 | 141 | 6.1 | 9.6 | 0.00 | 0.00 | 0.00 | 82 | 1020.0 |
| 20260506184757 | 56 | 128 | 6.1 | 11.3 | 0.00 | 0.00 | 0.00 | 82 | 1020.0 |
| 20260506184536 | 56 | 128 | 6.1 | 11.3 | 0.00 | 0.00 | 0.00 | 82 | 1020.0 |
| 20260506183509 | 56 | 139 | 6.1 | 9.6 | 0.00 | 0.00 | 0.00 | 83 | 1020.1 |
| 20260506183001 | 56 | 140 | 5.2 | 8.7 | 0.00 | 0.00 | 0.00 | 83 | 1020.0 |
| 20260506182131 | 56 | 157 | 4.3 | 8.7 | 0.00 | 0.00 | 0.00 | 84 | 1020.1 |
| 20260506181706 | 56 | 145 | 5.2 | 8.7 | 0.00 | 0.00 | 0.00 | 84 | 1020.0 |
| 20260506180121 | 56 | 160 | 4.3 | 7.8 | 0.00 | 0.00 | 0.00 | 85 | 1020.0 |
| 20260506174626 | 55 | 142 | 6.1 | 9.6 | 0.00 | 0.00 | 0.00 | 88 | 1019.5 |
| 20260506174127 | 56 | 128 | 6.1 | 8.7 | 0.00 | 0.00 | 0.00 | 88 | 1019.7 |
| 20260506173041 | 56 | 156 | 3.5 | 8.7 | 0.00 | 0.00 | 0.00 | 88 | 1019.7 |
| 20260506172822 | 55 | 142 | 5.2 | 8.7 | 0.00 | 0.00 | 0.00 | 90 | 1019.7 |
| 20260506171710 | 54 | 122 | 6.1 | 9.6 | 0.00 | 0.00 | 0.00 | 91 | 1019.8 |
| 20260506170212 | 55 | 147 | 5.2 | 8.7 | 0.00 | 0.00 | 0.00 | 89 | 1019.9 |
| 20260506165011 | 55 | 138 | 5.2 | 10.4 | 0.00 | 0.00 | 0.00 | 89 | 1019.6 |
| 20260506164820 | 55 | 138 | 5.2 | 10.4 | 0.00 | 0.00 | 0.00 | 89 | 1019.6 |
| 20260506163441 | 55 | 160 | 3.5 | 7.0 | 0.00 | 0.00 | 0.00 | 89 | 1019.7 |
| 20260506162407 | 55 | 142 | 4.3 | 8.7 | 0.00 | 0.00 | 0.00 | 90 | 1019.5 |
| 20260506162026 | 55 | 142 | 4.3 | 8.7 | 0.00 | 0.00 | 0.00 | 90 | 1019.5 |
| 20260506160430 | 55 | 137 | 6.1 | 10.4 | 0.00 | 0.00 | 0.00 | 92 | 1019.0 |
| 20260506155802 | 54 | 129 | 6.1 | 9.6 | 0.00 | 0.00 | 0.00 | 93 | 1019.1 |
| 20260506154941 | 54 | 132 | 6.1 | 8.7 | 0.00 | 0.00 | 0.00 | 93 | 1019.1 |
| 20260506153646 | 54 | 139 | 4.3 | 7.8 | 0.00 | 0.00 | 0.00 | 93 | 1019.3 |
| 20260506153311 | 54 | 150 | 5.2 | 7.8 | 0.00 | 0.00 | 0.00 | 93 | 1019.4 |
| 20260506152056 | 54 | 145 | 4.3 | 7.0 | 0.00 | 0.00 | 0.00 | 94 | 1019.5 |
| 20260506151842 | 54 | 152 | 3.5 | 7.0 | 0.00 | 0.00 | 0.00 | 93 | 1019.5 |
| 20260506150642 | 54 | 164 | 3.5 | 7.0 | 0.00 | 0.00 | 0.00 | 94 | 1019.4 |
| 20260506150601 | 54 | 164 | 3.5 | 7.0 | 0.00 | 0.00 | 0.00 | 94 | 1019.4 |
| 20260506145322 | 53 | 148 | 5.2 | 8.7 | 0.00 | 0.00 | 0.00 | 95 | 1019.0 |
| 20260506145246 | 53 | 148 | 5.2 | 8.7 | 0.00 | 0.00 | 0.00 | 95 | 1019.0 |
| 20260506144117 | 53 | 133 | 5.2 | 7.8 | 0.00 | 0.00 | 0.00 | 94 | 1019.2 |
| 20260506143806 | 54 | 134 | 4.3 | 7.8 | 0.00 | 0.00 | 0.00 | 93 | 1019.2 |
| 20260506142702 | 54 | 142 | 2.6 | 5.2 | 0.00 | 0.00 | 0.00 | 92 | 1019.3 |
| 20260506142410 | 54 | 149 | 3.5 | 5.2 | 0.00 | 0.00 | 0.00 | 92 | 1019.2 |
| 20260506141006 | 53 | 154 | 4.3 | 7.0 | 0.00 | 0.00 | 0.00 | 92 | 1019.0 |
| 20260506140027 | 54 | 142 | 4.3 | 7.0 | 0.00 | 0.00 | 0.00 | 91 | 1018.9 |
| 20260506135543 | 54 | 151 | 4.3 | 7.0 | 0.00 | 0.00 | 0.00 | 90 | 1019.0 |
| 20260506134827 | 55 | 174 | 1.7 | 5.2 | 0.00 | 0.00 | 0.00 | 88 | 1019.1 |
| 20260506134241 | 55 | 184 | 2.6 | 5.2 | 0.00 | 0.00 | 0.00 | 88 | 1019.1 |
| 20260506133327 | 55 | 170 | 2.6 | 7.0 | 0.00 | 0.00 | 0.00 | 87 | 1018.8 |
| 20260506132926 | 55 | 176 | 1.7 | 7.0 | 0.00 | 0.00 | 0.00 | 88 | 1018.9 |
| 20260506132007 | 55 | 159 | 2.6 | 6.1 | 0.00 | 0.00 | 0.00 | 88 | 1018.7 |
| 20260506131450 | 55 | 152 | 3.5 | 6.1 | 0.00 | 0.00 | 0.00 | 88 | 1018.8 |
| 20260506130802 | 55 | 162 | 3.5 | 7.0 | 0.00 | 0.00 | 0.00 | 87 | 1018.8 |
| 20260506130206 | 55 | 163 | 2.6 | 7.8 | 0.00 | 0.00 | 0.00 | 89 | 1018.6 |
| 20260506125531 | 54 | 127 | 5.2 | 7.8 | 0.00 | 0.00 | 0.00 | 89 | 1018.2 |
| 20260506124721 | 55 | 160 | 4.3 | 7.8 | 0.00 | 0.00 | 0.00 | 88 | 1018.5 |
| 20260506124111 | 55 | 168 | 4.3 | 7.8 | 0.00 | 0.00 | 0.00 | 87 | 1018.5 |
| 20260506123356 | 55 | 158 | 4.3 | 7.8 | 0.00 | 0.00 | 0.00 | 87 | 1018.4 |
| 20260506122722 | 55 | 158 | 3.5 | 7.8 | 0.00 | 0.00 | 0.00 | 87 | 1018.2 |
| 20260506121806 | 55 | 150 | 3.5 | 7.0 | 0.00 | 0.00 | 0.00 | 87 | 1018.2 |
| 20260506121451 | 55 | 145 | 4.3 | 7.0 | 0.00 | 0.00 | 0.00 | 87 | 1018.1 |
| 20260506120516 | 55 | 141 | 3.5 | 6.1 | 0.00 | 0.00 | 0.00 | 87 | 1018.2 |
| 20260506120107 | 55 | 145 | 4.3 | 6.1 | 0.00 | 0.00 | 0.00 | 86 | 1018.1 |
| 20260506115140 | 55 | 150 | 3.5 | 6.1 | 0.00 | 0.00 | 0.00 | 86 | 1018.1 |
| 20260506113630 | 55 | 126 | 3.5 | 6.1 | 0.00 | 0.00 | 0.00 | 87 | 1017.9 |
| 20260506113547 | 55 | 126 | 3.5 | 6.1 | 0.00 | 0.00 | 0.00 | 87 | 1017.9 |
| 20260506112326 | 55 | 127 | 4.3 | 6.1 | 0.00 | 0.00 | 0.00 | 87 | 1017.8 |
| 20260506110846 | 55 | 145 | 3.5 | 7.0 | 0.00 | 0.00 | 0.00 | 88 | 1017.8 |
| 20260506110711 | 55 | 145 | 3.5 | 7.0 | 0.00 | 0.00 | 0.00 | 88 | 1017.8 |
| 20260506105526 | 55 | 140 | 4.3 | 7.0 | 0.00 | 0.00 | 0.00 | 87 | 1017.7 |
| 20260506105242 | 55 | 145 | 3.5 | 5.2 | 0.00 | 0.00 | 0.00 | 87 | 1017.7 |
| 20260506104041 | 55 | 154 | 3.5 | 5.2 | 0.00 | 0.00 | 0.00 | 86 | 1017.6 |
| 20260506103951 | 55 | 153 | 2.6 | 5.2 | 0.00 | 0.00 | 0.00 | 87 | 1017.7 |
| 20260506102610 | 55 | 148 | 3.5 | 6.1 | 0.00 | 0.00 | 0.00 | 86 | 1017.6 |
| 20260506101010 | 55 | 156 | 4.3 | 7.0 | 0.00 | 0.00 | 0.00 | 86 | 1017.6 |
| 20260506095851 | 55 | 155 | 3.5 | 6.1 | 0.00 | 0.00 | 0.00 | 86 | 1017.5 |
| 20260506095456 | 55 | 151 | 3.5 | 6.1 | 0.00 | 0.00 | 0.00 | 85 | 1017.4 |
| 20260506094156 | 56 | 133 | 2.6 | 6.1 | 0.00 | 0.00 | 0.00 | 85 | 1017.2 |
| 20260506093222 | 55 | 165 | 3.5 | 6.1 | 0.00 | 0.00 | 0.00 | 86 | 1017.1 |
| 20260506092645 | 55 | 146 | 2.6 | 5.2 | 0.00 | 0.00 | 0.00 | 86 | 1017.2 |
| 20260506091907 | 55 | 147 | 3.5 | 6.1 | 0.00 | 0.00 | 0.00 | 87 | 1017.1 |
| 20260506091353 | 55 | 148 | 3.5 | 7.0 | 0.00 | 0.00 | 0.00 | 87 | 1017.0 |
| 20260506090611 | 55 | 145 | 4.3 | 7.0 | 0.00 | 0.00 | 0.00 | 86 | 1017.0 |
| 20260506090046 | 55 | 135 | 4.3 | 7.0 | 0.00 | 0.00 | 0.00 | 86 | 1017.0 |
| 20260506084610 | 56 | 124 | 4.3 | 6.1 | 0.00 | 0.00 | 0.00 | 86 | 1016.9 |
| 20260506083121 | 56 | 130 | 5.2 | 7.0 | 0.00 | 0.00 | 0.00 | 86 | 1016.7 |
| 20260506082702 | 56 | 128 | 5.2 | 7.0 | 0.00 | 0.00 | 0.00 | 85 | 1016.7 |
| 20260506081717 | 56 | 134 | 4.3 | 7.0 | 0.00 | 0.00 | 0.00 | 85 | 1016.6 |
| 20260506081227 | 56 | 142 | 4.3 | 7.8 | 0.00 | 0.00 | 0.00 | 85 | 1016.6 |
| 20260506080310 | 56 | 137 | 5.2 | 7.8 | 0.00 | 0.00 | 0.00 | 85 | 1016.5 |
| 20260506073441 | 57 | 143 | 4.3 | 7.0 | 0.00 | 0.00 | 0.00 | 84 | 1016.3 |
| 20260506073311 | 57 | 143 | 4.3 | 7.0 | 0.00 | 0.00 | 0.00 | 84 | 1016.3 |
| 20260506071910 | 57 | 150 | 4.3 | 7.0 | 0.00 | 0.00 | 0.00 | 83 | 1016.2 |
| 20260506070642 | 58 | 160 | 4.3 | 6.1 | 0.00 | 0.00 | 0.00 | 82 | 1016.2 |
| 20260506070331 | 58 | 161 | 3.5 | 5.2 | 0.00 | 0.00 | 0.00 | 82 | 1016.2 |
| 20260506062101 | 60 | 118 | 3.5 | 5.2 | 0.00 | 0.00 | 0.00 | 80 | 1015.9 |
| 20260506061402 | 60 | 96 | 0.9 | 2.6 | 0.00 | 0.00 | 0.00 | 79 | 1015.7 |
| 20260506060601 | 60 | 106 | 0.9 | 2.6 | 0.00 | 0.00 | 0.00 | 79 | 1015.7 |